Time,TemperatureF,DewpointF,PressureIn,WindDirection,WindDirectionDegrees,WindSpeedMPH,WindSpeedGustMPH,Humidity,HourlyPrecipIn,Conditions,Clouds,dailyrainin,SoftwareType,DateUTC
2013-11-24 00:00:00,18.1,11.5,30.54,WSW,244,1.0,1.0,75,0.00,,,0.00,Wunderground v.1.13,2013-11-24 07:00:00,
2013-11-24 00:05:00,18.1,11.5,30.54,West,265,2.0,2.0,75,0.00,,,0.00,Wunderground v.1.13,2013-11-24 07:05:00,
2013-11-24 00:10:00,18.0,11.4,30.54,West,265,0.0,14.0,75,0.00,,,0.00,Wunderground v.1.13,2013-11-24 07:10:00,
2013-11-24 00:15:00,18.0,11.4,30.53,West,269,0.0,14.0,75,0.00,,,0.00,Wunderground v.1.13,2013-11-24 07:15:00,
2013-11-24 00:25:00,17.7,11.4,30.53,West,269,0.0,14.0,76,0.00,,,0.00,Wunderground v.1.13,2013-11-24 07:25:00,
2013-11-24 00:35:00,17.7,11.4,30.52,SW,214,0.0,14.0,76,0.00,,,0.00,Wunderground v.1.13,2013-11-24 07:35:00,
2013-11-24 00:40:00,17.5,11.2,30.52,SW,214,0.0,14.0,76,0.00,,,0.00,Wunderground v.1.13,2013-11-24 07:40:00,
2013-11-24 00:45:00,17.5,11.2,30.51,SW,225,0.0,14.0,76,0.00,,,0.00,Wunderground v.1.13,2013-11-24 07:45:00,
2013-11-24 00:50:00,17.5,11.2,30.51,SW,225,0.0,14.0,76,0.00,,,0.00,Wunderground v.1.13,2013-11-24 07:50:00,
2013-11-24 00:55:00,17.7,11.4,30.51,SW,227,0.0,14.0,76,0.00,,,0.00,Wunderground v.1.13,2013-11-24 07:55:00,
2013-11-24 01:05:00,17.7,11.4,30.51,SW,229,0.0,14.0,76,0.00,,,0.00,Wunderground v.1.13,2013-11-24 08:05:00,
2013-11-24 01:15:00,17.3,11.0,30.50,SW,230,0.0,14.0,76,0.00,,,0.00,Wunderground v.1.13,2013-11-24 08:15:00,
2013-11-24 01:20:00,17.5,11.2,30.50,SSW,206,0.0,14.0,76,0.00,,,0.00,Wunderground v.1.13,2013-11-24 08:20:00,
2013-11-24 01:24:00,17.7,11.4,30.50,SW,214,0.0,14.0,76,0.00,,,0.00,Wunderground v.1.13,2013-11-24 08:24:00,
2013-11-24 01:30:00,17.5,11.2,30.49,SW,221,0.0,14.0,76,0.00,,,0.00,Wunderground v.1.13,2013-11-24 08:30:00,
2013-11-24 01:35:00,17.5,11.2,30.49,SW,230,0.0,14.0,76,0.00,,,0.00,Wunderground v.1.13,2013-11-24 08:35:00,
2013-11-24 01:40:00,17.3,11.0,30.49,SW,230,0.0,14.0,76,0.00,,,0.00,Wunderground v.1.13,2013-11-24 08:40:00,
2013-11-24 01:45:00,17.2,10.9,30.49,SW,231,0.0,14.0,76,0.00,,,0.00,Wunderground v.1.13,2013-11-24 08:45:00,
2013-11-24 01:50:00,17.0,10.7,30.49,SW,230,0.0,14.0,76,0.00,,,0.00,Wunderground v.1.13,2013-11-24 08:50:00,
2013-11-24 01:55:00,16.7,10.4,30.49,SW,230,0.0,14.0,76,0.00,,,0.00,Wunderground v.1.13,2013-11-24 08:55:00,
2013-11-24 02:00:00,16.2,10.0,30.49,SW,230,0.0,14.0,76,0.00,,,0.00,Wunderground v.1.13,2013-11-24 09:00:00,
2013-11-24 02:04:00,15.9,9.7,30.49,SW,230,0.0,14.0,76,0.00,,,0.00,Wunderground v.1.13,2013-11-24 09:04:00,
2013-11-24 02:10:00,15.7,9.5,30.49,SW,230,0.0,14.0,76,0.00,,,0.00,Wunderground v.1.13,2013-11-24 09:10:00,
2013-11-24 02:15:00,15.2,9.3,30.48,SW,230,0.0,14.0,77,0.00,,,0.00,Wunderground v.1.13,2013-11-24 09:15:00,
2013-11-24 02:20:00,14.9,9.0,30.48,SW,230,0.0,14.0,77,0.00,,,0.00,Wunderground v.1.13,2013-11-24 09:20:00,
2013-11-24 02:25:00,14.8,8.9,30.48,SW,230,0.0,14.0,77,0.00,,,0.00,Wunderground v.1.13,2013-11-24 09:25:00,
2013-11-24 02:30:00,14.4,8.8,30.47,SW,230,0.0,14.0,78,0.00,,,0.00,Wunderground v.1.13,2013-11-24 09:30:00,
2013-11-24 02:40:00,14.0,8.4,30.47,SW,230,0.0,14.0,78,0.00,,,0.00,Wunderground v.1.13,2013-11-24 09:40:00,
2013-11-24 02:50:00,13.8,8.5,30.46,SW,230,0.0,14.0,79,0.00,,,0.00,Wunderground v.1.13,2013-11-24 09:50:00,
2013-11-24 02:55:00,13.6,8.6,30.46,SW,230,0.0,14.0,80,0.00,,,0.00,Wunderground v.1.13,2013-11-24 09:55:00,
2013-11-24 03:00:00,13.6,8.6,30.46,SW,230,0.0,14.0,80,0.00,,,0.00,Wunderground v.1.13,2013-11-24 10:00:00,
2013-11-24 03:05:00,13.8,8.8,30.46,SW,230,0.0,14.0,80,0.00,,,0.00,Wunderground v.1.13,2013-11-24 10:05:00,
2013-11-24 03:10:00,13.8,8.8,30.46,SW,230,0.0,14.0,80,0.00,,,0.00,Wunderground v.1.13,2013-11-24 10:10:00,
2013-11-24 03:15:00,13.6,8.6,30.46,SW,230,0.0,14.0,80,0.00,,,0.00,Wunderground v.1.13,2013-11-24 10:15:00,
2013-11-24 03:25:00,13.3,8.3,30.46,SW,230,0.0,14.0,80,0.00,,,0.00,Wunderground v.1.13,2013-11-24 10:25:00,
2013-11-24 03:29:00,13.5,8.8,30.45,SW,230,0.0,14.0,81,0.00,,,0.00,Wunderground v.1.13,2013-11-24 10:29:00,
2013-11-24 03:35:00,13.5,8.8,30.45,SW,230,0.0,14.0,81,0.00,,,0.00,Wunderground v.1.13,2013-11-24 10:35:00,
2013-11-24 03:40:00,13.3,8.6,30.45,SW,230,0.0,14.0,81,0.00,,,0.00,Wunderground v.1.13,2013-11-24 10:40:00,
2013-11-24 03:45:00,13.1,8.4,30.44,SW,230,0.0,14.0,81,0.00,,,0.00,Wunderground v.1.13,2013-11-24 10:45:00,
2013-11-24 03:50:00,12.9,8.2,30.44,SW,230,0.0,14.0,81,0.00,,,0.00,Wunderground v.1.13,2013-11-24 10:50:00,
2013-11-24 03:55:00,12.8,8.1,30.44,SW,230,0.0,14.0,81,0.00,,,0.00,Wunderground v.1.13,2013-11-24 10:55:00,
2013-11-24 04:00:00,12.6,7.9,30.43,SW,230,0.0,14.0,81,0.00,,,0.00,Wunderground v.1.13,2013-11-24 11:00:00,
2013-11-24 04:05:00,12.3,7.6,30.43,SW,230,0.0,14.0,81,0.00,,,0.00,Wunderground v.1.13,2013-11-24 11:05:00,
2013-11-24 04:10:00,12.3,7.6,30.43,SW,230,0.0,14.0,81,0.00,,,0.00,Wunderground v.1.13,2013-11-24 11:10:00,
2013-11-24 04:15:00,12.1,7.4,30.43,SW,230,0.0,14.0,81,0.00,,,0.00,Wunderground v.1.13,2013-11-24 11:15:00,
2013-11-24 04:20:00,11.9,7.2,30.43,SW,230,0.0,14.0,81,0.00,,,0.00,Wunderground v.1.13,2013-11-24 11:20:00,
2013-11-24 04:25:00,11.7,7.0,30.43,SW,230,0.0,14.0,81,0.00,,,0.00,Wunderground v.1.13,2013-11-24 11:25:00,
2013-11-24 04:30:00,11.7,7.0,30.42,SW,231,0.0,14.0,81,0.00,,,0.00,Wunderground v.1.13,2013-11-24 11:30:00,
2013-11-24 04:34:00,11.9,7.5,30.42,SW,231,0.0,14.0,82,0.00,,,0.00,Wunderground v.1.13,2013-11-24 11:34:00,
2013-11-24 04:40:00,12.1,7.7,30.42,SW,231,0.0,14.0,82,0.00,,,0.00,Wunderground v.1.13,2013-11-24 11:40:00,
2013-11-24 04:45:00,12.4,8.2,30.42,SW,231,0.0,14.0,83,0.00,,,0.00,Wunderground v.1.13,2013-11-24 11:45:00,
2013-11-24 04:50:00,12.6,8.1,30.42,SW,231,0.0,14.0,82,0.00,,,0.00,Wunderground v.1.13,2013-11-24 11:50:00,
2013-11-24 04:54:00,12.6,8.1,30.42,SW,231,0.0,14.0,82,0.00,,,0.00,Wunderground v.1.13,2013-11-24 11:54:00,
2013-11-24 05:00:00,12.8,8.3,30.41,SW,231,0.0,14.0,82,0.00,,,0.00,Wunderground v.1.13,2013-11-24 12:00:00,
2013-11-24 05:05:00,12.8,8.3,30.41,SW,231,0.0,14.0,82,0.00,,,0.00,Wunderground v.1.13,2013-11-24 12:05:00,
2013-11-24 05:10:00,13.5,9.3,30.41,SW,231,0.0,14.0,83,0.00,,,0.00,Wunderground v.1.13,2013-11-24 12:10:00,
2013-11-24 05:15:00,14.1,9.9,30.41,SW,231,0.0,14.0,83,0.00,,,0.00,Wunderground v.1.13,2013-11-24 12:15:00,
2013-11-24 05:20:00,14.8,10.6,30.41,SW,231,0.0,14.0,83,0.00,,,0.00,Wunderground v.1.13,2013-11-24 12:20:00,
2013-11-24 05:25:00,15.4,11.4,30.41,SW,231,0.0,14.0,84,0.00,,,0.00,Wunderground v.1.13,2013-11-24 12:25:00,
2013-11-24 05:30:00,15.9,11.9,30.40,SW,231,0.0,14.0,84,0.00,,,0.00,Wunderground v.1.13,2013-11-24 12:30:00,
2013-11-24 05:35:00,16.7,12.7,30.40,SW,231,0.0,14.0,84,0.00,,,0.00,Wunderground v.1.13,2013-11-24 12:35:00,
2013-11-24 05:39:00,17.2,12.9,30.40,SW,231,0.0,14.0,83,0.00,,,0.00,Wunderground v.1.13,2013-11-24 12:39:00,
2013-11-24 05:45:00,17.7,13.4,30.39,SW,231,0.0,14.0,83,0.00,,,0.00,Wunderground v.1.13,2013-11-24 12:45:00,
2013-11-24 05:50:00,17.8,13.2,30.39,SW,231,0.0,14.0,82,0.00,,,0.00,Wunderground v.1.13,2013-11-24 12:50:00,
2013-11-24 05:55:00,18.1,13.5,30.39,SW,231,0.0,14.0,82,0.00,,,0.00,Wunderground v.1.13,2013-11-24 12:55:00,
2013-11-24 05:59:00,18.6,14.0,30.39,SW,231,0.0,14.0,82,0.00,,,0.00,Wunderground v.1.13,2013-11-24 12:59:00,
2013-11-24 06:05:00,19.1,14.2,30.39,SW,231,0.0,14.0,81,0.00,,,0.00,Wunderground v.1.13,2013-11-24 13:05:00,
2013-11-24 06:15:00,19.1,13.9,30.39,SW,231,0.0,14.0,80,0.00,,,0.00,Wunderground v.1.13,2013-11-24 13:15:00,
2013-11-24 06:20:00,18.9,13.5,30.39,SW,231,0.0,14.0,79,0.00,,,0.00,Wunderground v.1.13,2013-11-24 13:20:00,
2013-11-24 06:24:00,18.8,13.4,30.39,SW,231,0.0,14.0,79,0.00,,,0.00,Wunderground v.1.13,2013-11-24 13:24:00,
2013-11-24 06:30:00,18.6,13.2,30.39,SW,231,0.0,14.0,79,0.00,,,0.00,Wunderground v.1.13,2013-11-24 13:30:00,
2013-11-24 06:35:00,18.3,12.9,30.39,SW,231,0.0,14.0,79,0.00,,,0.00,Wunderground v.1.13,2013-11-24 13:35:00,
2013-11-24 06:40:00,18.1,12.7,30.39,SW,231,0.0,14.0,79,0.00,,,0.00,Wunderground v.1.13,2013-11-24 13:40:00,
2013-11-24 06:45:00,18.0,12.6,30.39,SW,231,0.0,14.0,79,0.00,,,0.00,Wunderground v.1.13,2013-11-24 13:45:00,
2013-11-24 06:50:00,18.0,12.9,30.39,SW,231,0.0,14.0,80,0.00,,,0.00,Wunderground v.1.13,2013-11-24 13:50:00,
2013-11-24 06:55:00,17.8,12.7,30.39,SW,231,0.0,14.0,80,0.00,,,0.00,Wunderground v.1.13,2013-11-24 13:55:00,
2013-11-24 07:00:00,18.0,12.9,30.38,SW,230,0.0,14.0,80,0.00,,,0.00,Wunderground v.1.13,2013-11-24 14:00:00,
2013-11-24 07:05:00,18.6,13.5,30.38,SW,230,0.0,14.0,80,0.00,,,0.00,Wunderground v.1.13,2013-11-24 14:05:00,
2013-11-24 07:10:00,18.8,13.7,30.38,SW,230,0.0,14.0,80,0.00,,,0.00,Wunderground v.1.13,2013-11-24 14:10:00,
2013-11-24 07:15:00,18.9,13.7,30.38,SW,230,0.0,14.0,80,0.00,,,0.00,Wunderground v.1.13,2013-11-24 14:15:00,
2013-11-24 07:25:00,20.0,14.8,30.38,SW,225,0.0,14.0,80,0.00,,,0.00,Wunderground v.1.13,2013-11-24 14:25:00,
2013-11-24 07:30:00,21.3,15.5,30.37,SSE,160,0.0,14.0,78,0.00,,,0.00,Wunderground v.1.13,2013-11-24 14:30:00,
2013-11-24 07:35:00,22.1,15.7,30.37,SSE,160,0.0,14.0,76,0.00,,,0.00,Wunderground v.1.13,2013-11-24 14:35:00,
2013-11-24 07:40:00,22.4,15.4,30.37,SSE,156,1.0,1.0,74,0.00,,,0.00,Wunderground v.1.13,2013-11-24 14:40:00,
2013-11-24 07:45:00,22.9,15.5,30.36,SSE,161,2.0,2.0,73,0.00,,,0.00,Wunderground v.1.13,2013-11-24 14:45:00,
2013-11-24 07:50:00,23.2,15.5,30.36,SSE,156,2.0,14.0,72,0.00,,,0.00,Wunderground v.1.13,2013-11-24 14:50:00,
2013-11-24 07:55:00,23.6,15.6,30.36,SSE,166,2.0,14.0,71,0.00,,,0.00,Wunderground v.1.13,2013-11-24 14:55:00,
2013-11-24 08:05:00,24.4,16.0,30.36,SSE,156,2.0,14.0,70,0.00,,,0.00,Wunderground v.1.13,2013-11-24 15:05:00,
2013-11-24 08:09:00,24.8,16.4,30.36,SE,146,1.0,1.0,70,0.00,,,0.00,Wunderground v.1.13,2013-11-24 15:09:00,
2013-11-24 08:15:00,25.6,16.5,30.35,SSE,159,1.0,14.0,68,0.00,,,0.00,Wunderground v.1.13,2013-11-24 15:15:00,
2013-11-24 08:20:00,25.8,16.3,30.35,South,175,2.0,14.0,67,0.00,,,0.00,Wunderground v.1.13,2013-11-24 15:20:00,
2013-11-24 08:25:00,26.0,16.5,30.35,South,188,2.0,2.0,67,0.00,,,0.00,Wunderground v.1.13,2013-11-24 15:25:00,
2013-11-24 08:30:00,26.1,16.6,30.34,SSE,163,2.0,14.0,67,0.00,,,0.00,Wunderground v.1.13,2013-11-24 15:30:00,
2013-11-24 08:35:00,26.6,17.1,30.34,SSE,165,1.0,1.0,67,0.00,,,0.00,Wunderground v.1.13,2013-11-24 15:35:00,
2013-11-24 08:45:00,27.8,18.3,30.34,South,177,2.0,14.0,67,0.00,,,0.00,Wunderground v.1.13,2013-11-24 15:45:00,
2013-11-24 08:49:00,28.7,18.8,30.34,SSW,192,5.0,14.0,66,0.00,,,0.00,Wunderground v.1.13,2013-11-24 15:49:00,
2013-11-24 08:55:00,29.4,19.1,30.34,SSE,167,7.0,7.0,65,0.00,,,0.00,Wunderground v.1.13,2013-11-24 15:55:00,
2013-11-24 09:00:00,29.7,19.4,30.34,SSE,151,7.0,14.0,65,0.00,,,0.00,Wunderground v.1.13,2013-11-24 16:00:00,
2013-11-24 09:05:00,29.8,19.5,30.34,SSW,198,6.0,6.0,65,0.00,,,0.00,Wunderground v.1.13,2013-11-24 16:05:00,
2013-11-24 09:15:00,30.1,19.7,30.32,SW,219,5.0,14.0,65,0.00,,,0.00,Wunderground v.1.13,2013-11-24 16:15:00,
2013-11-24 09:20:00,29.8,19.5,30.32,South,185,5.0,5.0,65,0.00,,,0.00,Wunderground v.1.13,2013-11-24 16:20:00,
2013-11-24 09:25:00,29.7,19.7,30.32,SSW,210,6.0,14.0,66,0.00,,,0.00,Wunderground v.1.13,2013-11-24 16:25:00,
2013-11-24 09:30:00,29.5,19.5,30.32,SSE,152,5.0,5.0,66,0.00,,,0.00,Wunderground v.1.13,2013-11-24 16:30:00,
2013-11-24 09:35:00,29.8,20.2,30.32,South,184,3.0,14.0,67,0.00,,,0.00,Wunderground v.1.13,2013-11-24 16:35:00,
2013-11-24 09:45:00,31.8,22.1,30.30,SSW,198,6.0,6.0,67,0.00,,,0.00,Wunderground v.1.13,2013-11-24 16:45:00,
2013-11-24 09:50:00,32.5,22.4,30.30,SSW,204,7.0,14.0,66,0.00,,,0.00,Wunderground v.1.13,2013-11-24 16:50:00,
2013-11-24 09:55:00,32.7,22.6,30.30,SSW,197,7.0,14.0,66,0.00,,,0.00,Wunderground v.1.13,2013-11-24 16:55:00,
2013-11-24 10:00:00,32.9,22.8,30.30,South,176,10.0,10.0,66,0.00,,,0.00,Wunderground v.1.13,2013-11-24 17:00:00,
2013-11-24 10:05:00,33.1,23.3,30.30,SSW,192,10.0,10.0,67,0.00,,,0.00,Wunderground v.1.13,2013-11-24 17:05:00,
2013-11-24 10:10:00,33.4,23.3,30.30,SSW,209,8.0,8.0,66,0.00,,,0.00,Wunderground v.1.13,2013-11-24 17:10:00,
2013-11-24 10:15:00,33.5,23.7,30.30,SSW,196,9.0,9.0,67,0.00,,,0.00,Wunderground v.1.13,2013-11-24 17:15:00,
2013-11-24 10:20:00,34.0,24.2,30.30,South,180,10.0,10.0,67,0.00,,,0.00,Wunderground v.1.13,2013-11-24 17:20:00,
2013-11-24 10:25:00,34.3,24.5,30.30,South,184,9.0,9.0,67,0.00,,,0.00,Wunderground v.1.13,2013-11-24 17:25:00,
2013-11-24 10:30:00,34.7,24.9,30.29,SW,224,7.0,7.0,67,0.00,,,0.00,Wunderground v.1.13,2013-11-24 17:30:00,
2013-11-24 10:35:00,34.9,25.0,30.29,WSW,237,6.0,18.0,67,0.00,,,0.00,Wunderground v.1.13,2013-11-24 17:35:00,
2013-11-24 10:45:00,34.9,24.7,30.28,SW,218,12.0,14.0,66,0.00,,,0.00,Wunderground v.1.13,2013-11-24 17:45:00,
2013-11-24 10:50:00,35.3,25.1,30.28,SW,225,10.0,10.0,66,0.00,,,0.00,Wunderground v.1.13,2013-11-24 17:50:00,
2013-11-24 10:55:00,35.8,25.2,30.28,West,259,9.0,14.0,65,0.00,,,0.00,Wunderground v.1.13,2013-11-24 17:55:00,
2013-11-24 11:00:00,35.9,24.9,30.26,SSE,167,10.0,10.0,64,0.00,,,0.00,Wunderground v.1.13,2013-11-24 18:00:00,
2013-11-24 11:05:00,36.2,25.2,30.26,SSE,157,10.0,14.0,64,0.00,,,0.00,Wunderground v.1.13,2013-11-24 18:05:00,
2013-11-24 11:10:00,36.2,24.8,30.26,SSE,152,10.0,14.0,63,0.00,,,0.00,Wunderground v.1.13,2013-11-24 18:10:00,
2013-11-24 11:15:00,36.3,24.9,30.24,South,170,10.0,10.0,63,0.00,,,0.00,Wunderground v.1.13,2013-11-24 18:15:00,
2013-11-24 11:20:00,36.3,24.9,30.24,South,186,9.0,19.0,63,0.00,,,0.00,Wunderground v.1.13,2013-11-24 18:20:00,
2013-11-24 11:25:00,36.3,24.1,30.24,SSW,194,11.0,11.0,61,0.00,,,0.00,Wunderground v.1.13,2013-11-24 18:25:00,
2013-11-24 11:30:00,36.8,24.6,30.23,SSE,167,10.0,10.0,61,0.00,,,0.00,Wunderground v.1.13,2013-11-24 18:30:00,
2013-11-24 11:35:00,36.9,24.3,30.23,SSW,197,9.0,14.0,60,0.00,,,0.00,Wunderground v.1.13,2013-11-24 18:35:00,
2013-11-24 11:40:00,36.9,23.9,30.23,South,179,10.0,14.0,59,0.00,,,0.00,Wunderground v.1.13,2013-11-24 18:40:00,
2013-11-24 11:45:00,36.5,23.1,30.21,SSW,211,11.0,19.0,58,0.00,,,0.00,Wunderground v.1.13,2013-11-24 18:45:00,
2013-11-24 11:50:00,36.3,23.3,30.21,South,178,13.0,14.0,59,0.00,,,0.00,Wunderground v.1.13,2013-11-24 18:50:00,
2013-11-24 11:55:00,36.3,23.3,30.21,SSE,165,11.0,11.0,59,0.00,,,0.00,Wunderground v.1.13,2013-11-24 18:55:00,
2013-11-24 11:59:00,36.5,23.9,30.20,SSE,162,9.0,15.0,60,0.00,,,0.00,Wunderground v.1.13,2013-11-24 18:59:00,
2013-11-24 12:04:00,36.3,23.7,30.20,SSE,155,9.0,14.0,60,0.00,,,0.00,Wunderground v.1.13,2013-11-24 19:04:00,
2013-11-24 12:10:00,36.2,24.4,30.20,SSW,206,8.0,8.0,62,0.00,,,0.00,Wunderground v.1.13,2013-11-24 19:10:00,
2013-11-24 12:15:00,36.3,24.1,30.18,SSW,192,6.0,6.0,61,0.00,,,0.00,Wunderground v.1.13,2013-11-24 19:15:00,
2013-11-24 12:20:00,36.5,23.9,30.18,SW,217,6.0,6.0,60,0.00,,,0.00,Wunderground v.1.13,2013-11-24 19:20:00,
2013-11-24 12:25:00,36.3,22.9,30.18,South,187,7.0,7.0,58,0.00,,,0.00,Wunderground v.1.13,2013-11-24 19:25:00,
2013-11-24 12:30:00,36.3,22.9,30.16,South,186,10.0,10.0,58,0.00,,,0.00,Wunderground v.1.13,2013-11-24 19:30:00,
2013-11-24 12:35:00,36.5,23.1,30.16,South,174,13.0,13.0,58,0.00,,,0.00,Wunderground v.1.13,2013-11-24 19:35:00,
2013-11-24 12:40:00,36.8,23.4,30.16,SSW,211,11.0,18.0,58,0.00,,,0.00,Wunderground v.1.13,2013-11-24 19:40:00,
2013-11-24 12:45:00,37.0,22.7,30.15,SSW,208,12.0,16.0,56,0.00,,,0.00,Wunderground v.1.13,2013-11-24 19:45:00,
2013-11-24 12:55:00,37.0,22.7,30.15,SSW,205,14.0,28.0,56,0.00,,,0.00,Wunderground v.1.13,2013-11-24 19:55:00,
2013-11-24 13:00:00,37.2,23.4,30.15,South,174,14.0,14.0,57,0.00,,,0.00,Wunderground v.1.13,2013-11-24 20:00:00,
2013-11-24 13:05:00,37.2,23.4,30.15,South,174,13.0,21.0,57,0.00,,,0.00,Wunderground v.1.13,2013-11-24 20:05:00,
2013-11-24 13:10:00,37.0,23.2,30.15,SSW,195,14.0,14.0,57,0.00,,,0.00,Wunderground v.1.13,2013-11-24 20:10:00,
2013-11-24 13:15:00,37.0,23.6,30.13,South,180,12.0,14.0,58,0.00,,,0.00,Wunderground v.1.13,2013-11-24 20:15:00,
2013-11-24 13:20:00,37.3,23.9,30.13,SSW,207,10.0,10.0,58,0.00,,,0.00,Wunderground v.1.13,2013-11-24 20:20:00,
2013-11-24 13:25:00,37.2,23.4,30.13,SW,220,12.0,14.0,57,0.00,,,0.00,Wunderground v.1.13,2013-11-24 20:25:00,
2013-11-24 13:30:00,37.5,23.6,30.12,SSE,151,11.0,11.0,57,0.00,,,0.00,Wunderground v.1.13,2013-11-24 20:30:00,
2013-11-24 13:35:00,37.3,23.4,30.12,SW,219,9.0,14.0,57,0.00,,,0.00,Wunderground v.1.13,2013-11-24 20:35:00,
2013-11-24 13:40:00,37.2,22.9,30.12,SW,224,9.0,21.0,56,0.00,,,0.00,Wunderground v.1.13,2013-11-24 20:40:00,
2013-11-24 13:45:00,37.0,23.2,30.13,SSW,198,8.0,8.0,57,0.00,,,0.00,Wunderground v.1.13,2013-11-24 20:45:00,
2013-11-24 13:49:00,37.0,23.2,30.13,WSW,242,8.0,14.0,57,0.00,,,0.00,Wunderground v.1.13,2013-11-24 20:49:00,
2013-11-24 13:55:00,37.0,23.2,30.13,WSW,254,5.0,5.0,57,0.00,,,0.00,Wunderground v.1.13,2013-11-24 20:55:00,
2013-11-24 14:00:00,37.2,23.4,30.13,WSW,246,3.0,16.0,57,0.00,,,0.00,Wunderground v.1.13,2013-11-24 21:00:00,
2013-11-24 14:05:00,37.2,23.4,30.13,South,190,2.0,2.0,57,0.00,,,0.00,Wunderground v.1.13,2013-11-24 21:05:00,
2013-11-24 14:09:00,37.2,23.4,30.13,SSW,211,1.0,1.0,57,0.00,,,0.00,Wunderground v.1.13,2013-11-24 21:09:00,
2013-11-24 14:15:00,37.2,23.4,30.11,SSW,201,2.0,2.0,57,0.00,,,0.00,Wunderground v.1.13,2013-11-24 21:15:00,
2013-11-24 14:20:00,37.0,23.2,30.11,South,174,5.0,5.0,57,0.00,,,0.00,Wunderground v.1.13,2013-11-24 21:20:00,
2013-11-24 14:25:00,37.0,23.6,30.11,SSW,205,6.0,6.0,58,0.00,,,0.00,Wunderground v.1.13,2013-11-24 21:25:00,
2013-11-24 14:30:00,36.9,23.9,30.10,SSW,195,5.0,14.0,59,0.00,,,0.00,Wunderground v.1.13,2013-11-24 21:30:00,
2013-11-24 14:35:00,36.8,24.2,30.10,SW,226,4.0,4.0,60,0.00,,,0.00,Wunderground v.1.13,2013-11-24 21:35:00,
2013-11-24 14:40:00,36.8,24.2,30.10,SW,223,4.0,14.0,60,0.00,,,0.00,Wunderground v.1.13,2013-11-24 21:40:00,
2013-11-24 14:45:00,36.8,24.6,30.09,South,169,1.0,1.0,61,0.00,,,0.00,Wunderground v.1.13,2013-11-24 21:45:00,
2013-11-24 14:49:00,36.8,24.6,30.09,SSW,196,1.0,14.0,61,0.00,,,0.00,Wunderground v.1.13,2013-11-24 21:49:00,
2013-11-24 14:55:00,36.8,24.6,30.09,SSW,207,3.0,14.0,61,0.00,,,0.00,Wunderground v.1.13,2013-11-24 21:55:00,
2013-11-24 15:00:00,36.8,25.0,30.09,SSW,209,3.0,3.0,62,0.00,,,0.00,Wunderground v.1.13,2013-11-24 22:00:00,
2013-11-24 15:05:00,36.9,25.1,30.09,SSW,209,1.0,1.0,62,0.00,,,0.00,Wunderground v.1.13,2013-11-24 22:05:00,
2013-11-24 15:10:00,36.9,25.1,30.09,WSW,242,0.0,14.0,62,0.00,,,0.00,Wunderground v.1.13,2013-11-24 22:10:00,
2013-11-24 15:15:00,37.0,24.8,30.09,WSW,242,0.0,14.0,61,0.00,,,0.00,Wunderground v.1.13,2013-11-24 22:15:00,
2013-11-24 15:20:00,37.0,24.8,30.09,SW,233,0.0,14.0,61,0.00,,,0.00,Wunderground v.1.13,2013-11-24 22:20:00,
2013-11-24 15:25:00,37.2,25.0,30.09,SW,232,0.0,14.0,61,0.00,,,0.00,Wunderground v.1.13,2013-11-24 22:25:00,
2013-11-24 15:29:00,37.3,25.1,30.08,South,188,0.0,14.0,61,0.00,,,0.00,Wunderground v.1.13,2013-11-24 22:29:00,
2013-11-24 15:35:00,37.2,25.0,30.08,SSW,192,0.0,14.0,61,0.00,,,0.00,Wunderground v.1.13,2013-11-24 22:35:00,
2013-11-24 15:40:00,37.2,25.4,30.08,South,190,0.0,14.0,62,0.00,,,0.00,Wunderground v.1.13,2013-11-24 22:40:00,
2013-11-24 15:50:00,37.3,24.7,30.07,South,179,0.0,14.0,60,0.00,,,0.00,Wunderground v.1.13,2013-11-24 22:50:00,
2013-11-24 15:55:00,37.5,24.9,30.07,SW,223,0.0,14.0,60,0.00,,,0.00,Wunderground v.1.13,2013-11-24 22:55:00,
2013-11-24 16:00:00,37.5,24.5,30.08,SSW,207,0.0,14.0,59,0.00,,,0.00,Wunderground v.1.13,2013-11-24 23:00:00,
2013-11-24 16:10:00,37.3,24.3,30.08,SSW,209,0.0,14.0,59,0.00,,,0.00,Wunderground v.1.13,2013-11-24 23:10:00,
2013-11-24 16:14:00,37.2,24.2,30.07,SSW,206,0.0,14.0,59,0.00,,,0.00,Wunderground v.1.13,2013-11-24 23:14:00,
2013-11-24 16:20:00,37.0,24.4,30.07,SSW,207,0.0,14.0,60,0.00,,,0.00,Wunderground v.1.13,2013-11-24 23:20:00,
2013-11-24 16:30:00,36.6,24.4,30.07,SSW,199,1.0,1.0,61,0.00,,,0.00,Wunderground v.1.13,2013-11-24 23:30:00,
2013-11-24 16:35:00,36.5,24.7,30.07,South,188,2.0,2.0,62,0.00,,,0.00,Wunderground v.1.13,2013-11-24 23:35:00,
2013-11-24 16:40:00,36.3,24.9,30.07,SW,222,2.0,14.0,63,0.00,,,0.00,Wunderground v.1.13,2013-11-24 23:40:00,
2013-11-24 16:45:00,36.2,25.2,30.07,SSW,192,3.0,3.0,64,0.00,,,0.00,Wunderground v.1.13,2013-11-24 23:45:00,
2013-11-24 16:50:00,35.9,25.3,30.07,South,182,2.0,2.0,65,0.00,,,0.00,Wunderground v.1.13,2013-11-24 23:50:00,
2013-11-24 16:55:00,35.5,25.3,30.07,South,174,2.0,2.0,66,0.00,,,0.00,Wunderground v.1.13,2013-11-24 23:55:00,
2013-11-24 17:00:00,35.3,25.1,30.07,SW,219,1.0,1.0,66,0.00,,,0.00,Wunderground v.1.13,2013-11-25 00:00:00,
2013-11-24 17:05:00,35.0,25.1,30.07,SW,225,1.0,1.0,67,0.00,,,0.00,Wunderground v.1.13,2013-11-25 00:05:00,
2013-11-24 17:10:00,34.7,24.9,30.07,South,189,1.0,1.0,67,0.00,,,0.00,Wunderground v.1.13,2013-11-25 00:10:00,
2013-11-24 17:20:00,34.1,25.0,30.07,SSW,196,0.0,14.0,69,0.00,,,0.00,Wunderground v.1.13,2013-11-25 00:20:00,
2013-11-24 17:25:00,34.0,24.5,30.07,South,182,0.0,14.0,68,0.00,,,0.00,Wunderground v.1.13,2013-11-25 00:25:00,
2013-11-24 17:30:00,33.8,24.4,30.07,SW,220,1.0,1.0,68,0.00,,,0.00,Wunderground v.1.13,2013-11-25 00:30:00,
2013-11-24 17:35:00,33.7,24.3,30.07,SSW,195,2.0,2.0,68,0.00,,,0.00,Wunderground v.1.13,2013-11-25 00:35:00,
2013-11-24 17:40:00,33.4,23.6,30.07,SW,223,2.0,14.0,67,0.00,,,0.00,Wunderground v.1.13,2013-11-25 00:40:00,
2013-11-24 17:45:00,33.2,23.8,30.07,SSW,213,2.0,2.0,68,0.00,,,0.00,Wunderground v.1.13,2013-11-25 00:45:00,
2013-11-24 17:50:00,32.9,23.5,30.07,SSW,201,1.0,1.0,68,0.00,,,0.00,Wunderground v.1.13,2013-11-25 00:50:00,
2013-11-24 17:55:00,32.7,23.3,30.07,SW,215,1.0,1.0,68,0.00,,,0.00,Wunderground v.1.13,2013-11-25 00:55:00,
2013-11-24 18:05:00,32.1,23.4,30.07,South,180,0.0,14.0,70,0.00,,,0.00,Wunderground v.1.13,2013-11-25 01:05:00,
2013-11-24 18:10:00,31.8,23.1,30.07,South,181,0.0,14.0,70,0.00,,,0.00,Wunderground v.1.13,2013-11-25 01:10:00,
2013-11-24 18:20:00,31.5,22.8,30.06,South,187,0.0,14.0,70,0.00,,,0.00,Wunderground v.1.13,2013-11-25 01:20:00,
2013-11-24 18:25:00,31.3,22.6,30.06,South,189,0.0,14.0,70,0.00,,,0.00,Wunderground v.1.13,2013-11-25 01:25:00,
2013-11-24 18:30:00,31.0,22.7,30.07,South,189,0.0,14.0,71,0.00,,,0.00,Wunderground v.1.13,2013-11-25 01:30:00,
2013-11-24 18:35:00,30.7,22.4,30.07,South,189,0.0,14.0,71,0.00,,,0.00,Wunderground v.1.13,2013-11-25 01:35:00,
2013-11-24 18:40:00,30.4,22.1,30.07,South,189,0.0,14.0,71,0.00,,,0.00,Wunderground v.1.13,2013-11-25 01:40:00,
2013-11-24 18:45:00,30.3,22.4,30.05,South,189,0.0,14.0,72,0.00,,,0.00,Wunderground v.1.13,2013-11-25 01:45:00,
2013-11-24 18:55:00,30.0,22.1,30.05,South,191,0.0,14.0,72,0.00,,,0.00,Wunderground v.1.13,2013-11-25 01:55:00,
2013-11-24 19:00:00,29.8,22.2,30.05,South,191,0.0,14.0,73,0.00,,,0.00,Wunderground v.1.13,2013-11-25 02:00:00,
2013-11-24 19:05:00,29.8,22.2,30.05,South,191,0.0,14.0,73,0.00,,,0.00,Wunderground v.1.13,2013-11-25 02:05:00,
2013-11-24 19:09:00,29.7,22.1,30.05,South,191,0.0,14.0,73,0.00,,,0.00,Wunderground v.1.13,2013-11-25 02:09:00,
2013-11-24 19:14:00,29.7,21.8,30.05,SW,225,0.0,14.0,72,0.00,,,0.00,Wunderground v.1.13,2013-11-25 02:14:00,
2013-11-24 19:19:00,29.8,21.9,30.05,SSW,202,0.0,14.0,72,0.00,,,0.00,Wunderground v.1.13,2013-11-25 02:19:00,
2013-11-24 19:24:00,29.8,21.9,30.05,SSW,211,0.0,14.0,72,0.00,,,0.00,Wunderground v.1.13,2013-11-25 02:24:00,
2013-11-24 19:29:00,29.8,21.9,30.05,SSW,212,0.0,14.0,72,0.00,,,0.00,Wunderground v.1.13,2013-11-25 02:29:00,
2013-11-24 19:34:00,29.7,21.8,30.05,SSW,212,0.0,14.0,72,0.00,,,0.00,Wunderground v.1.13,2013-11-25 02:34:00,
2013-11-24 19:40:00,29.7,22.1,30.05,SSW,212,0.0,14.0,73,0.00,,,0.00,Wunderground v.1.13,2013-11-25 02:40:00,
2013-11-24 19:45:00,29.8,22.2,30.04,SSW,199,0.0,14.0,73,0.00,,,0.00,Wunderground v.1.13,2013-11-25 02:45:00,
2013-11-24 19:50:00,29.8,22.2,30.04,SSW,211,0.0,14.0,73,0.00,,,0.00,Wunderground v.1.13,2013-11-25 02:50:00,
2013-11-24 19:55:00,29.8,22.2,30.04,SSW,211,0.0,14.0,73,0.00,,,0.00,Wunderground v.1.13,2013-11-25 02:55:00,
2013-11-24 20:00:00,29.8,22.2,30.03,SSW,209,0.0,14.0,73,0.00,,,0.00,Wunderground v.1.13,2013-11-25 03:00:00,
2013-11-24 20:05:00,29.8,22.2,30.03,WSW,252,0.0,14.0,73,0.00,,,0.00,Wunderground v.1.13,2013-11-25 03:05:00,
2013-11-24 20:10:00,29.8,22.2,30.03,WSW,252,0.0,14.0,73,0.00,,,0.00,Wunderground v.1.13,2013-11-25 03:10:00,
2013-11-24 20:14:00,29.7,22.1,30.03,WSW,251,0.0,14.0,73,0.00,,,0.00,Wunderground v.1.13,2013-11-25 03:14:00,
2013-11-24 20:20:00,29.5,21.9,30.03,WSW,251,0.0,14.0,73,0.00,,,0.00,Wunderground v.1.13,2013-11-25 03:20:00,
2013-11-24 20:25:00,29.3,21.7,30.03,South,186,0.0,14.0,73,0.00,,,0.00,Wunderground v.1.13,2013-11-25 03:25:00,
2013-11-24 20:30:00,29.3,21.7,30.03,South,186,0.0,14.0,73,0.00,,,0.00,Wunderground v.1.13,2013-11-25 03:30:00,
2013-11-24 20:35:00,29.0,21.7,30.03,South,186,0.0,14.0,74,0.00,,,0.00,Wunderground v.1.13,2013-11-25 03:35:00,
2013-11-24 20:40:00,29.0,21.7,30.03,SSW,206,0.0,14.0,74,0.00,,,0.00,Wunderground v.1.13,2013-11-25 03:40:00,
2013-11-24 20:45:00,29.0,21.7,30.03,SSW,206,0.0,14.0,74,0.00,,,0.00,Wunderground v.1.13,2013-11-25 03:45:00,
2013-11-24 20:50:00,28.8,21.6,30.03,SSW,206,0.0,14.0,74,0.00,,,0.00,Wunderground v.1.13,2013-11-25 03:50:00,
2013-11-24 20:59:00,28.8,21.9,30.03,WSW,255,0.0,14.0,75,0.00,,,0.00,Wunderground v.1.13,2013-11-25 03:59:00,
2013-11-24 21:05:00,28.8,21.9,30.03,SSW,206,1.0,1.0,75,0.00,,,0.00,Wunderground v.1.13,2013-11-25 04:05:00,
2013-11-24 21:10:00,28.8,21.9,30.03,SW,218,1.0,1.0,75,0.00,,,0.00,Wunderground v.1.13,2013-11-25 04:10:00,
2013-11-24 21:15:00,28.8,21.9,30.04,SW,229,0.0,14.0,75,0.00,,,0.00,Wunderground v.1.13,2013-11-25 04:15:00,
2013-11-24 21:20:00,28.8,21.9,30.04,SW,227,0.0,14.0,75,0.00,,,0.00,Wunderground v.1.13,2013-11-25 04:20:00,
2013-11-24 21:24:00,28.8,21.9,30.04,WSW,237,1.0,1.0,75,0.00,,,0.00,Wunderground v.1.13,2013-11-25 04:24:00,
2013-11-24 21:30:00,28.8,21.9,30.04,WSW,242,1.0,1.0,75,0.00,,,0.00,Wunderground v.1.13,2013-11-25 04:30:00,
2013-11-24 21:35:00,28.7,21.8,30.04,WSW,242,0.0,14.0,75,0.00,,,0.00,Wunderground v.1.13,2013-11-25 04:35:00,
2013-11-24 21:39:00,28.7,21.8,30.04,SW,230,0.0,14.0,75,0.00,,,0.00,Wunderground v.1.13,2013-11-25 04:39:00,
2013-11-24 21:44:00,28.5,21.6,30.04,West,259,0.0,14.0,75,0.00,,,0.00,Wunderground v.1.13,2013-11-25 04:44:00,
2013-11-24 21:50:00,28.4,21.5,30.04,West,259,0.0,14.0,75,0.00,,,0.00,Wunderground v.1.13,2013-11-25 04:50:00,
2013-11-24 22:00:00,27.9,21.3,30.04,West,259,0.0,14.0,76,0.00,,,0.00,Wunderground v.1.13,2013-11-25 05:00:00,
2013-11-24 22:05:00,27.8,21.2,30.04,West,260,0.0,14.0,76,0.00,,,0.00,Wunderground v.1.13,2013-11-25 05:05:00,
2013-11-24 22:10:00,27.8,21.2,30.04,WSW,246,0.0,14.0,76,0.00,,,0.00,Wunderground v.1.13,2013-11-25 05:10:00,
2013-11-24 22:14:00,27.6,21.0,30.04,WSW,246,0.0,14.0,76,0.00,,,0.00,Wunderground v.1.13,2013-11-25 05:14:00,
2013-11-24 22:20:00,27.5,21.2,30.04,WNW,284,0.0,14.0,77,0.00,,,0.00,Wunderground v.1.13,2013-11-25 05:20:00,
2013-11-24 22:25:00,27.3,21.0,30.04,WNW,284,0.0,14.0,77,0.00,,,0.00,Wunderground v.1.13,2013-11-25 05:25:00,
2013-11-24 22:30:00,27.3,21.0,30.04,WNW,284,0.0,14.0,77,0.00,,,0.00,Wunderground v.1.13,2013-11-25 05:30:00,
2013-11-24 22:35:00,27.3,21.0,30.04,West,278,0.0,14.0,77,0.00,,,0.00,Wunderground v.1.13,2013-11-25 05:35:00,
2013-11-24 22:45:00,26.9,21.0,30.03,West,278,0.0,14.0,78,0.00,,,0.00,Wunderground v.1.13,2013-11-25 05:45:00,
2013-11-24 22:50:00,26.7,20.8,30.03,West,278,0.0,14.0,78,0.00,,,0.00,Wunderground v.1.13,2013-11-25 05:50:00,
2013-11-24 22:55:00,26.6,20.7,30.03,West,278,0.0,14.0,78,0.00,,,0.00,Wunderground v.1.13,2013-11-25 05:55:00,
2013-11-24 23:00:00,26.4,20.5,30.03,West,278,0.0,14.0,78,0.00,,,0.00,Wunderground v.1.13,2013-11-25 06:00:00,
2013-11-24 23:04:00,26.3,20.4,30.03,West,278,0.0,14.0,78,0.00,,,0.00,Wunderground v.1.13,2013-11-25 06:04:00,
2013-11-24 23:09:00,26.3,20.7,30.03,West,278,0.0,14.0,79,0.00,,,0.00,Wunderground v.1.13,2013-11-25 06:09:00,
2013-11-24 23:15:00,26.0,20.4,30.03,West,278,0.0,14.0,79,0.00,,,0.00,Wunderground v.1.13,2013-11-25 06:15:00,
2013-11-24 23:24:00,25.7,20.1,30.03,West,278,0.0,14.0,79,0.00,,,0.00,Wunderground v.1.13,2013-11-25 06:24:00,
2013-11-24 23:29:00,25.4,20.1,30.02,West,278,0.0,14.0,80,0.00,,,0.00,Wunderground v.1.13,2013-11-25 06:29:00,
2013-11-24 23:35:00,25.1,19.8,30.02,West,278,0.0,14.0,80,0.00,,,0.00,Wunderground v.1.13,2013-11-25 06:35:00,
2013-11-24 23:40:00,24.8,19.5,30.02,West,278,0.0,14.0,80,0.00,,,0.00,Wunderground v.1.13,2013-11-25 06:40:00,
2013-11-24 23:50:00,24.2,18.9,30.02,West,278,0.0,14.0,80,0.00,,,0.00,Wunderground v.1.13,2013-11-25 06:50:00,
2013-11-24 23:55:00,24.1,19.1,30.02,West,278,0.0,14.0,81,0.00,,,0.00,Wunderground v.1.13,2013-11-25 06:55:00,